Location: Eschertshofen
(49.3064°N, 11.5756°E)
Time: 13:02:09
(UTC+00:00)

Iridium 26 - Pass Details

Date: 02 October 2021
Orbit: 772 x 775 km, 86.4° (Epoch: 15 October)

Event Time Altitude Azimuth Distance (km) Brightness Sun altitude
Exits shadow 20:14:47 42° 341° (NNW) 1,107 6.5 -32.3°
Drops below altitude 10° 20:18:17 10° 359° (N) 2,332 8.4 -32.8°
Sets 20:20:40 0° 2° (N) 3,263 9.2 -33.1°
